Terminal Aerodrome Forecast
Issued by NWS Austin/San Antonio, TX

Home | Current Version | Previous Version | Text Only | Print | Product List | Glossary On
Versions: 1 2 3 4 5 6 7 8 9 10 11 12 13 14 15 16 17 18 19 20 21 22 23 24 25 26 27
000
FTUS44 KEWX 040807 AAB
TAFAUS
TAF AMD
KAUS 040807Z 0408/0512 19002KT 1/2SM -DZ FG OVC002
      TEMPO 0408/0412 1/4SM -DZ FG OVC001
     FM041700 19007KT 1/2SM -DZ FG OVC003 PROB30 0418/0421 3SM SHRA
     FM042200 02009G20KT 3SM BR OVC005
     FM050000 01014G30KT 4SM -DZ BR OVC007=

USA.gov is the U.S. government's official web portal to all federal, state and local government web resources and services.